Year,Month,Day,Hour,Minute,Value (Times are PST for temperature in C)
2014,12,12,00,00,10.80
2014,12,12,00,01,10.80
2014,12,12,00,02,10.80
2014,12,12,00,03,10.90
2014,12,12,00,04,10.90
2014,12,12,00,05,10.90
2014,12,12,00,06,10.90
2014,12,12,00,07,10.90
2014,12,12,00,08,10.90
2014,12,12,00,09,10.90
2014,12,12,00,10,10.90
2014,12,12,00,11,10.90
2014,12,12,00,12,10.90
2014,12,12,00,13,10.90
2014,12,12,00,14,10.90
2014,12,12,00,15,10.80
2014,12,12,00,16,10.80
2014,12,12,00,17,10.80
2014,12,12,00,18,10.80
2014,12,12,00,19,10.80
2014,12,12,00,20,10.80
2014,12,12,00,21,10.80
2014,12,12,00,22,10.70
2014,12,12,00,23,10.70
2014,12,12,00,24,10.70
2014,12,12,00,25,10.70
2014,12,12,00,26,10.70
2014,12,12,00,27,10.70
2014,12,12,00,28,10.70
2014,12,12,00,29,10.70
2014,12,12,00,30,10.70
2014,12,12,00,31,10.70
2014,12,12,00,32,10.60
2014,12,12,00,33,10.60
2014,12,12,00,34,10.60
2014,12,12,00,35,10.60
2014,12,12,00,36,10.60
2014,12,12,00,37,10.60
2014,12,12,00,38,10.60
2014,12,12,00,39,10.60
2014,12,12,00,40,10.60
2014,12,12,00,41,10.60
2014,12,12,00,42,10.60
2014,12,12,00,43,10.60
2014,12,12,00,44,10.60
2014,12,12,00,45,10.60
2014,12,12,00,46,10.60
2014,12,12,00,47,10.60
2014,12,12,00,48,10.60
2014,12,12,00,49,10.60
2014,12,12,00,50,10.60
2014,12,12,00,51,10.60
2014,12,12,00,52,10.60
2014,12,12,00,53,10.60
2014,12,12,00,54,10.60
2014,12,12,00,55,10.60
2014,12,12,00,56,10.60
2014,12,12,00,57,10.60
2014,12,12,00,58,10.60
2014,12,12,00,59,10.60
2014,12,12,01,00,10.60
2014,12,12,01,01,10.60
2014,12,12,01,02,10.60
2014,12,12,01,03,10.60
2014,12,12,01,04,10.60
2014,12,12,01,05,10.60
2014,12,12,01,06,10.60
2014,12,12,01,07,10.50
2014,12,12,01,08,10.40
2014,12,12,01,09,10.40
2014,12,12,01,10,10.40
2014,12,12,01,11,10.40
2014,12,12,01,12,10.40
2014,12,12,01,13,10.40
2014,12,12,01,14,10.40
2014,12,12,01,15,10.40
2014,12,12,01,16,10.40
2014,12,12,01,17,10.40
2014,12,12,01,18,10.40
2014,12,12,01,19,10.40
2014,12,12,01,20,10.40
2014,12,12,01,21,10.40
2014,12,12,01,22,10.40
2014,12,12,01,23,10.40
2014,12,12,01,24,10.40
2014,12,12,01,25,10.50
2014,12,12,01,26,10.60
2014,12,12,01,27,10.60
2014,12,12,01,28,10.60
2014,12,12,01,29,10.60
2014,12,12,01,30,10.60
2014,12,12,01,31,10.60
2014,12,12,01,32,10.60
2014,12,12,01,33,10.60
2014,12,12,01,34,10.60
2014,12,12,01,35,10.60
2014,12,12,01,36,10.60
2014,12,12,01,37,10.60
2014,12,12,01,38,10.60
2014,12,12,01,39,10.60
2014,12,12,01,40,10.50
2014,12,12,01,41,10.40
2014,12,12,01,42,10.40
2014,12,12,01,43,10.40
2014,12,12,01,44,10.40
2014,12,12,01,45,10.40
2014,12,12,01,46,10.40
2014,12,12,01,47,10.40
2014,12,12,01,48,10.50
2014,12,12,01,49,10.60
2014,12,12,01,50,10.60
2014,12,12,01,51,10.60
2014,12,12,01,52,10.60
2014,12,12,01,53,10.60
2014,12,12,01,54,10.60
2014,12,12,01,55,10.60
2014,12,12,01,56,10.60
2014,12,12,01,57,10.60
2014,12,12,01,58,10.60
2014,12,12,01,59,10.70
2014,12,12,02,00,10.70
2014,12,12,02,01,10.70
2014,12,12,02,02,10.70
2014,12,12,02,03,10.80
2014,12,12,02,04,10.80
2014,12,12,02,05,10.80
2014,12,12,02,06,10.80
2014,12,12,02,07,10.90
2014,12,12,02,08,10.90
2014,12,12,02,09,10.90
2014,12,12,02,10,10.90
2014,12,12,02,11,10.90
2014,12,12,02,12,10.90
2014,12,12,02,13,10.90
2014,12,12,02,14,10.90
2014,12,12,02,15,10.90
2014,12,12,02,16,10.80
2014,12,12,02,17,10.90
2014,12,12,02,18,10.90
2014,12,12,02,19,10.90
2014,12,12,02,20,10.90
2014,12,12,02,21,10.90
2014,12,12,02,22,10.90
2014,12,12,02,23,10.90
2014,12,12,02,24,10.90
2014,12,12,02,25,10.90
2014,12,12,02,26,10.90
2014,12,12,02,27,10.90
2014,12,12,02,28,10.90
2014,12,12,02,29,10.90
2014,12,12,02,30,11.00
2014,12,12,02,31,11.10
2014,12,12,02,32,11.10
2014,12,12,02,33,11.10
2014,12,12,02,34,11.10
2014,12,12,02,35,11.10
2014,12,12,02,36,11.10
2014,12,12,02,37,11.10
2014,12,12,02,38,11.10
2014,12,12,02,39,11.10
2014,12,12,02,40,11.10
2014,12,12,02,41,11.10
2014,12,12,02,42,11.10
2014,12,12,02,43,11.10
2014,12,12,02,44,11.10
2014,12,12,02,45,11.10
2014,12,12,02,46,11.10
2014,12,12,02,47,11.00
2014,12,12,02,48,10.90
2014,12,12,02,49,10.90
2014,12,12,02,50,10.90
2014,12,12,02,51,10.90
2014,12,12,02,52,10.90
2014,12,12,02,53,10.90
2014,12,12,02,54,10.90
2014,12,12,02,55,10.90
2014,12,12,02,56,10.90
2014,12,12,02,57,10.90
2014,12,12,02,58,10.90
2014,12,12,02,59,10.90
2014,12,12,03,00,10.80
2014,12,12,03,01,10.80
2014,12,12,03,02,10.80
2014,12,12,03,03,10.80
